LogoCoinalyze
    Ad-Free Version Anasayfa Piyasalar Fonlama Oranları
    Vadeli işlem verileri
    • Toplulaştırılmış veriler (Madeni Paralar)
    • Bireysel grafikler
    • Küresel grafikler
    Alarmlar
    TA
    Bitcoin Ethereum BNB Ripple Tron ZCash Dogecoin Monero UNUS SED LEO Chainlink Cardano Stellar Lumens Bitcoin Cash Litecoin Hedera Cronos Polkadot Ethereum Classic Algorand Quant Cosmos VeChain Dash Bitcoin SV BitTorrent Terra Decred Tezos Iota The Graph THETA Decentraland NEO Chiliz MultiversX Golem Basic Attention Token Horizen Qtum 0x DigiByte Beam RIF Token FTX Token Holo FUNToken Zilliqa Ontology Nano aelf Enjin Coin Ravencoin Mask Network Siacoin Verge Status WINk Waves IoTeX iExec RLC Power Ledger Steem Kyber Network Crystal Lisk Ark Ardor WOO Network IOST WAX Icon Storj Loopring Wanchain Bitcoin Diamond AdEx Bitcoin Gold Augur OmiseGO NEM MonaCoin BitShares Ren Komodo V Systems Nuls Mithril SOLVE Maker EOS Aion Nebulas HedgeTrade Bread Fetch.ai TomoChain Polygon Fantom Waltonchain GXChain Bytom Metaverse ETP MaidSafeCoin QASH
    Sırala:
    Daha
    • API
    • Mum Desenleri
    • Bağış
    • İletişim
    • Site Haritası
    • Gizlilik Politikası
    • Sorumluluk Reddi Beyanı
    • Theme:
    Türkçe
    • English
    • Français
    • Русский
    • Deutsch
    • Nederlands
    • Português (BR)
    • Español
    • 한국어
    • 简体中文
    • 日本語
     
    Giriş / Kaydol
    Markets/ Pepe/ PEPE ve EUR/ PEPEEUR Bitstamp
    İşlemler
    WL
    Sohbet
    İstatistikler
    Haberler
    ⦷
    AAA
    0.00000293 10898400.00000000 13:27:07
    0.00000293 87187500.00000000 13:27:01
    0.00000293 87187500.00000000 13:26:58
    0.00000294 91820191.30000000 12:25:21
    0.00000294 10898400.00000000 12:25:21
    0.00000295 87187500.00000000 12:20:55
    0.00000295 124420400.00000000 12:20:55
    0.00000294 73.70000000 12:15:13
    0.00000294 17237100.00000000 12:15:13
    0.00000294 73.70000000 12:15:07
    0.00000294 17237100.00000000 12:15:07
    0.00000295 10898400.00000000 11:40:50
    0.00000295 10898400.00000000 11:40:50
    0.00000295 10898400.00000000 11:40:50
    0.00000295 10898400.00000000 11:40:49
    0.00000295 10898400.00000000 11:40:49
    0.00000295 10898400.00000000 11:40:48
    0.00000295 5373800.00000000 11:38:56
    0.00000295 10898400.00000000 11:38:01
    0.00000295 10898400.00000000 11:38:01
    0.00000295 10898400.00000000 11:38:01
    0.00000295 10898400.00000000 11:38:00
    0.00000295 10898400.00000000 11:35:10
    0.00000295 10898400.00000000 11:35:07
    0.00000295 10898400.00000000 11:35:07
    0.00000295 10898400.00000000 11:35:07
    0.00000295 10898400.00000000 11:35:06
    0.00000295 10898400.00000000 11:35:06
    0.00000295 10898400.00000000 11:35:06
    0.00000295 10898400.00000000 11:35:05
    0.00000295 10898400.00000000 11:35:05
    0.00000295 10898400.00000000 11:35:04
    0.00000295 10898400.00000000 11:35:00
    0.00000296 10898400.00000000 11:34:46
    0.00000296 10898400.00000000 11:34:46
    0.00000296 10898400.00000000 11:34:46
    0.00000296 10898400.00000000 11:34:46
    0.00000296 10898400.00000000 11:34:46
    0.00000296 10898400.00000000 11:34:45
    0.00000295 10898400.00000000 11:33:13
    0.00000296 10898400.00000000 11:33:13
    0.00000295 10898400.00000000 11:33:12
    0.00000295 33.70000000 08:52:57
    0.00000295 62508100.00000000 08:52:57
    0.00000295 27343700.00000000 08:52:57
    0.00000299 77.50000000 06:04:03
    0.00000299 36214400.00000000 06:03:56
    0.00000299 1902358800.00000000 05:55:37
    0.00000300 76289195.09999999 04:05:46
    0.00000300 37192100.00000000 04:05:46
    0.00000300 87187500.00000000 04:05:46
    0.00000300 87187500.00000000 04:05:46
    0.00000300 58.10000000 02:37:56
    0.00000300 287845100.00000000 02:37:56
    0.00000298 288568007.39999998 23:04:39
    0.00000298 288568007.39999998 23:04:39
    0.00000298 288568007.39999998 23:04:37
    0.00000298 288568007.39999998 23:04:13
    0.00000298 288568007.39999998 23:02:58
    0.00000298 288568007.39999998 23:02:57
    0.00000298 10898400.00000000 23:02:57
    0.00000298 288568007.39999998 23:02:48
    0.00000298 288568007.39999998 23:00:19
    0.00000298 288568007.39999998 23:00:11
    0.00000298 10898400.00000000 23:00:11
    0.00000298 288568007.39999998 22:59:41
    0.00000298 288568007.39999998 22:58:46
    0.00000298 79241711.80000000 22:58:45
    0.00000298 157446300.50000000 22:58:43
    0.00000298 108866458.70000000 22:58:41
    0.00000298 10898400.00000000 22:58:41
    0.00000298 288568007.39999998 22:58:40
    0.00000298 10898400.00000000 22:58:40
    0.00000298 288568007.39999998 22:54:48
    0.00000298 10898400.00000000 22:54:48
    0.00000298 67259222.59999999 22:52:44
    0.00000298 288568007.39999998 22:52:43
    0.00000298 10898400.00000000 22:52:43
    0.00000298 240730128.80000001 22:50:52
    0.00000298 10898400.00000000 22:50:52
    0.00000299 288497715.80000001 22:50:47
    0.00000299 288497715.80000001 22:50:46
    0.00000299 288497715.80000001 22:50:46
    0.00000296 289476948.89999998 22:42:10
    0.00000296 10898400.00000000 22:42:10
    0.00000297 288611675.69999999 22:32:13
    0.00000298 177556014.59999999 22:24:41
    0.00000298 185538728.59999999 22:24:36
    0.00000298 289402230.60000002 22:24:35
    0.00000298 289402230.60000002 22:24:35
    0.00000298 289402230.60000002 22:24:31
    0.00000298 289405889.30000001 22:18:20
    0.00000298 289405889.30000001 22:18:20
    0.00000298 10898400.00000000 22:18:20
    0.00000299 288446683.39999998 22:11:44
    0.00000299 288446683.39999998 22:11:40
    0.00000299 197196324.90000001 22:08:30
    0.00000299 288469085.60000002 22:08:22
    0.00000299 288469085.60000002 22:08:22
    0.00000299 288469085.60000002 22:08:21
    Çıkış
    AAA
    Yardım
    🙂 🤣 😎 🤗 😛 😉 😜 🤑 🤔 😑 😴 😕 🙃 😲 😇 🙁 😢 😬 😟 😠 🕺 🏃 💪 ✌ 👌 👍 👎 👏 👋 🤝 🍺 🍻 🐋 🐟 🦈 🗽 🚄 ✈ 🛑 🚀 🏦 🌚 ⭐ 🌞 ⚡ 🏆 💰 💲 🔨 ❓ ❗ 💯 🔶 🏁
    ☺
    Giriş veya Kaydol ve sohbet
    24 Saat
    Değişim
    -3.62%
    Hacim
    63,365,023,065
    Yüksek
    0.00000306
    Düşük
    0.00000293
    7 Gün
    Değişim
    -10.40%
    Hacim
    142,281,907,774
    Yüksek
    0.00000343
    Düşük
    0.00000291
    30 Gün
    Değişim
    +16.73%
    Hacim
    987,022,372,377
    Yüksek
    0.00000388
    Düşük
    0.00000219
    Pepe price rallies 25% as whale demand and futures interest surge
    Key takeaways Pepe has gained 25% this week, including a combined 22% advance over the previous two days. Seven whale transactions worth more than $1 million each occurred Thursday, the highest...
    coinjournal.net
    Aug 21, 2026 08:41
    PEPE Supply on Exchanges Just Took a Massive Hit – What’s Next?
    A drop in PEPE exchange balances has added to bullish expectations despite muted trader interest.
    cryptopotato.com
    Aug 6, 2026 20:02
    PEPE Exchange Outflows Hit Nearly 2-Year High as Whales Accumulate
    Pepe (PEPE) recorded its largest single-day exchange outflow since November 2024, with 4.54 trillion tokens leaving trading platforms, signaling that holders are moving supply away from immediate...
    beincrypto.com
    Aug 6, 2026 04:57
    Meme Coin Based on White House Shooter Conspiracy Rallies 320%
    $HENRY surged 300% after a 2023 Pepe tweet appeared to name the White House shooter, fueling a viral time-travel meme. The post Meme Coin Based on White House Shooter Conspiracy Rallies 320%...
    beincrypto.com
    Apr 27, 2026 16:11
    PEPE surges 4% as market sentiment improves, eyes Key resistance breakout
    Key takeaways Pepe extends gains on Wednesday, stretching its rally from the 50-day EMA. Derivatives data show heightened retail activity as risk-on sentiment returns to the market. Pepe (PEPE) is...
    coinjournal.net
    Apr 22, 2026 11:44
    Why The PEPE Price Could Stage A 55X Rally To Reach New $0.0001 ATH
    The PEPE price has now started to edge back into bullish conversations after the recent inflows into the crypto market. The last time PEPE’s weekly chart printed the kind of structure now...
    newsbtc.com
    Apr 21, 2026 15:30
    Pepe (PEPE) surges 9%, drawing interest from whales
    Key takeaways PEPE is up 9% in the last 24 hours, making it one of the best performers among the top 50 cryptocurrencies by market cap. The rally comes amid renewed interest from whales and retail...
    coinjournal.net
    Apr 16, 2026 07:40
    Murad Says SPX6900 (SPX) Is Primed for a Rally — Is He Right This Time?
    Crypto influencer Murad Mahmudov claims SPX6900 (SPX) is stabilizing at the same market cap level where Dogecoin (DOGE) and Pepe (PEPE) consolidated before their explosive rallies. The...
    beincrypto.com
    Apr 5, 2026 21:36
    The Shiba Inu Of This Cycle: Analyst Shares Why It Is Better To Buy PEPE Now
    In the bull market cycle of 2021-2022, the Shiba Inu meme coin made waves in a way that changed the face of meme coins forever. This came after Dogecoin’s initial 36,000% rally, and Shiba Inu...
    newsbtc.com
    Apr 4, 2026 07:30
    PEPE Explodes by 18% Amid Altcoin Rally, BTC Tapped $74K: Market Watch
    The frog-themed meme coin is today's biggest gainer, followed by TAO, DOT, and BONK.
    cryptopotato.com
    Mar 16, 2026 10:56
    Should PEPE traders brace for volatility as short squeeze potential builds?
    The memecoin market has seen its collective market capitalization drop by 48% over the past year, and 6.9% over the past month, according to CoinMarketCap. According to Glassnode, the memecoin...
    ambcrypto.com
    Mar 7, 2026 18:00
    Komutu sohbete yazmanız yeterlidir. Takma ad1'i gerçek takma adla değiştirin.
    • /ignore nick1 Sohbet kullanıcısını engelle
    • /unignore nick1 Sohbet kullanıcısının engelini kaldır.
    • /ignorelist Engellediğiniz sohbet kullanıcılarını gösterin